Regional Weather Roundup
Issued by NWS

Home | Current Version | Previous Version | Text Only | Print | Product List | Glossary On
Versions: 1 2 3 4 5 6 7 8 9 10 11 12 13 14 15 16 17 18 19 20 21 22 23 24 25 26 27
000
ASUS44 KBMX 271610
RWRAL

ALABAMA REGIONAL WEATHER ROUNDUP
NATIONAL WEATHER SERVICE BIRMINGHAM AL
1100 AM CDT SAT AUG 27 2016

NOTE: "FAIR" INDICATES FEW OR NO CLOUDS BELOW 12,000 FEET
WITH NO SIGNIFICANT WEATHER AND/OR OBSTRUCTIONS TO VISIBILITY.

THE REMARK "TC" DENOTES TEMPERATURE IN DEGREES CELSIUS.

ALZ001>011-014-016>018-020-271700-
NORTH ALABAMA

CITY           SKY/WX    TMP DP  RH WIND       PRES   REMARKS
MUSCLE SHOALS  SUNNY     85  75  72 CALM      30.11F HX  93
HUNTSVILLE     MOSUNNY   85  74  69 VRB5      30.11F HX  92
DECATUR        MOSUNNY   86  75  69 SE5       30.11F HX  95
HALEYVILLE     FAIR      87  77  72 VRB5      30.14S HX  99
GADSDEN        SUNNY     86  74  67 CALM      30.11F HX  94
$$

ALZ012-013-022-023-030>036-040>044-271700-
WEST CENTRAL ALABAMA

CITY           SKY/WX    TMP DP  RH WIND       PRES   REMARKS
TUSCALOOSA     SUNNY     90  70  51 E7        30.06F HX  95
$$

ALZ015-024>027-033>036-040>044-271700-
CENTRAL ALABAMA

CITY           SKY/WX    TMP DP  RH WIND       PRES   REMARKS
BIRMINGHAM     MOSUNNY   88  71  57 CALM      30.12S HX  94
MONTGOMERY     SUNNY     90  68  48 NE7       30.06F HX  94
SHELBY CO ARPT PTSUNNY   86  69  56 VRB3      30.09F HX  90
MAXWELL AFB    MOSUNNY   87  71  57 VRB3      30.06F HX  93
GREENVILLE     FAIR      88  69  53 E6        30.05F HX  92
$$

ALZ019-021-028-029-037-038-045>048-271700-
EAST CENTRAL ALABAMA

CITY           SKY/WX    TMP DP  RH WIND       PRES   REMARKS
ANNISTON       MOSUNNY   90  66  45 N6        30.11S HX  92
ALEXANDER CITY SUNNY     90  81  75 E3        30.11F HX 108
AUBURN         PTSUNNY   85  71  63 VRB7      30.11F HX  90
$$

ALZ051>064-271700-
SOUTHWEST ALABAMA

CITY           SKY/WX    TMP DP  RH WIND       PRES   REMARKS
MOBILE         MOSUNNY   88  73  61 NE12      30.01F HX  95
BROOKLEY FIELD SUNNY     88  75  65 N8        30.01F HX  97
EVERGREEN      SUNNY     87  70  56 E8        30.04F HX  92
$$

ALZ049-050-065>069-271700-
SOUTHEAST ALABAMA

CITY           SKY/WX    TMP DP  RH WIND       PRES   REMARKS
DOTHAN         MOSUNNY   84  72  67 E8        30.09S
OZARK          MOSUNNY   87  70  57 E12       30.05R HX  91
TROY           SUNNY     86  70  58 NE10      30.06F HX  90
EUFAULA        FAIR      91  63  39 E9        30.05F HX  92
$$




USA.gov is the U.S. government's official web portal to all federal, state and local government web resources and services.